Location: Helsinki
(60.1699°N, 24.9384°E)
Time: 22:07:48
(UTC+03:00)

Transit 4A - Visible Passes

Search period start: 02 October 2022 00:00
Search period end: 12 October 2022 00:00
Orbit: 869 x 974 km, 66.8° (Epoch: 02 October)

Date Brightness Start Highest point End Pass type
(mag) Time Alt. Az. Time Alt. Az. Time Alt. Az.
02 Oct 8.6 01:23:21 46° NE 01:23:21 46° NE 01:27:24 10° NE visible
02 Oct 8.5 03:06:51 42° NW 03:08:16 50° NNW 03:14:02 10° ENE visible
02 Oct 8.6 04:50:21 13° WNW 04:55:37 47° N 05:01:18 10° E visible
02 Oct 8.0 06:36:36 10° NW 06:42:36 82° NE 06:48:27 10° SE visible
02 Oct 9.8 23:48:50 17° ENE 23:48:50 17° ENE 23:50:08 10° NE visible
03 Oct 8.5 01:32:20 50° NE 01:32:20 50° NE 01:36:40 10° NE visible
03 Oct 8.6 03:15:50 36° NW 03:17:43 47° N 03:23:26 10° ENE visible
03 Oct 8.5 04:59:20 11° WNW 05:05:04 51° NNE 05:10:47 10° E visible
03 Oct 7.8 06:45:54 10° NW 06:51:52 84° SW 06:57:43 10° SE visible
03 Oct 9.7 23:57:50 19° ENE 23:57:50 19° ENE 23:59:27 10° NE visible
04 Oct 8.5 01:41:20 52° NNE 01:41:20 52° NNE 01:45:58 10° NE visible
04 Oct 8.7 03:24:50 31° NW 03:27:12 45° N 03:32:52 10° ENE visible
04 Oct 8.4 05:08:35 10° WNW 05:14:29 56° NNE 05:20:15 10° E visible
05 Oct 9.6 00:06:51 21° ENE 00:06:51 21° ENE 00:08:46 10° NE visible
05 Oct 8.5 01:50:21 52° NNE 01:50:21 52° NNE 01:55:16 10° NE visible
05 Oct 8.7 03:33:51 27° NW 03:36:40 45° N 03:42:19 10° ENE visible
05 Oct 8.2 05:17:55 10° NW 05:23:53 64° NNE 05:29:41 10° ESE visible
06 Oct 9.5 00:15:53 24° NE 00:15:53 24° NE 00:18:02 10° NE visible
06 Oct 8.5 01:59:23 51° N 01:59:23 51° N 02:04:37 10° ENE visible
06 Oct 8.7 03:42:53 24° NW 03:46:08 46° N 03:51:48 10° E visible
06 Oct 8.0 05:27:15 10° NW 05:33:14 74° NNE 05:39:04 10° ESE visible
07 Oct 9.4 00:24:57 25° NE 00:24:57 25° NE 00:27:18 10° NE visible
07 Oct 8.6 02:08:27 48° N 02:08:27 48° N 02:13:59 10° ENE visible
07 Oct 8.6 03:51:57 22° NW 03:55:36 48° NNE 04:01:17 10° E visible
07 Oct 7.8 05:36:32 10° NW 05:42:32 87° NE 05:48:23 10° SE visible
08 Oct 9.4 00:34:03 27° NE 00:34:03 27° NE 00:36:35 10° NE visible
08 Oct 8.6 02:17:34 46° NNW 02:17:43 46° N 02:23:23 10° ENE visible
08 Oct 8.5 04:01:04 20° NW 04:05:02 52° NNE 04:10:46 10° E visible
08 Oct 7.7 05:45:50 10° NW 05:51:47 78° SW 05:57:36 10° SE visible
09 Oct 9.4 00:43:14 27° NE 00:43:14 27° NE 00:45:53 10° NE visible
09 Oct 8.7 02:26:45 44° NNW 02:27:11 45° N 02:32:50 10° ENE visible
09 Oct 8.3 04:10:16 19° NW 04:14:27 58° NNE 04:20:13 10° ESE visible
09 Oct 7.8 05:55:08 10° NW 06:00:59 63° SW 06:06:43 10° SSE visible
10 Oct 9.4 00:52:30 27° NE 00:52:30 27° NE 00:55:12 10° ENE visible
10 Oct 8.7 02:36:01 43° NNW 02:36:40 45° N 02:42:18 10° ENE visible
10 Oct 8.1 04:19:33 19° NW 04:23:49 67° NNE 04:29:38 10° ESE visible
10 Oct 8.0 06:04:26 10° NW 06:10:07 50° SW 06:15:42 10° SSE visible
11 Oct 9.5 01:01:54 26° NE 01:01:54 26° NE 01:04:33 10° ENE visible
11 Oct 8.6 02:45:26 45° N 02:46:08 47° N 02:51:47 10° E visible
11 Oct 7.8 04:28:58 20° NW 04:33:09 78° NE 04:39:00 10° ESE visible
11 Oct 8.2 06:13:47 10° NW 06:19:13 39° WSW 06:24:33 10° S visible
11 Oct10.523:27:56NE23:27:56NE23:12:45SWvisible
